Location: Mohawk View
(42.7837°N, 73.7885°W)
Time: 11:58:30
(UTC+00:00)

ALOS 2 - Pass Details

Date: 17 June 2021
Orbit: 630 x 632 km, 97.9° (Epoch: 27 July)

Event Time Altitude Azimuth Distance (km) Brightness Sun altitude
Exits shadow 04:41:24 60° 255° (WSW) 725 2.7 -23.7°
Maximum altitude 04:41:28 60° 259° (W) 724 2.7 -23.7°
Drops below altitude 10° 04:45:49 10° 340° (NNW) 2,023 6.2 -23.8°
Sets 04:48:04 0° 344° (NNW) 2,936 7.3 -23.8°
